Branson, MO

1:12 PM CDT on March 29, 2017 (GMT -0500)
Branson

Weather History for KBBG - November, 2012

Change the Weather History Date:

Thursday, November 8, 2012

  Actual Average (KHRO) Record (KHRO)
Temperature  
Mean Temperature 50 °F -  
Max Temperature 64 °F 59 °F 82 °F (2006)
Min Temperature 35 °F 40 °F 10 °F (1991)
Degree Days  
Heating Degree Days 16    
Moisture  
Dew Point 35 °F    
Average Humidity 64    
Maximum Humidity 87    
Minimum Humidity 32    
Precipitation  
Precipitation 0.00 in - - ()
Sea Level Pressure  
Sea Level Pressure 30.10 in    
Wind  
Wind Speed 7 mph (SE)    
Max Wind Speed 13 mph    
Max Gust Speed 18 mph    
Visibility 10 miles    
Events      
Averages and records for this station are not official NWS values.
T = Trace of Precipitation, MM = Missing Value Source: NWS Daily Summary

Daily Weather History Graph

Daily Weather History Graph

Search for Another Location

Airport or City:

Trip Planner

Search our weather history database for the weather conditions in past years. The results will help you decide how hot, cold, wet, or windy it might be!

Date:

Astronomy

Nov. 08, 2012 Rise Set
Actual Time 6:43 AM CST 5:08 PM CST
Civil Twilight 6:16 AM CST 5:36 PM CST
Nautical Twilight 5:45 AM CST 6:06 PM CST
Astronomical Twilight 5:15 AM CST 6:37 PM CST
Moon 12:49 AM CST (11/8) 1:42 PM CST (11/8)
Length of Visible Light 11h 19m
Length of Day
10h 25m
Waning Crescent, 32% of the Moon is Illuminated
Nov 8
Waning Crescent
Nov 13
New
Nov 20
First Quarter
Nov 28
Full
Dec 6
Last Quarter

Hourly Weather History & Observations

Time (CST) Temp. Windchill Dew Point Humidity Pressure Visibility Wind Dir Wind Speed Gust Speed Precip Events Conditions
12:15 AM 41.0 °F 37.1 °F 32.0 °F 70% 30.16 in 10.0 mi SE 5.8 mph - N/A   Clear
12:35 AM 39.2 °F 35.0 °F 32.0 °F 75% 30.16 in 10.0 mi ESE 5.8 mph - N/A   Clear
12:55 AM 37.4 °F 34.9 °F 32.0 °F 81% 30.16 in 10.0 mi ESE 3.5 mph - N/A   Clear
1:15 AM 39.2 °F 35.0 °F 32.0 °F 75% 30.16 in 10.0 mi ESE 5.8 mph - N/A   Clear
1:55 AM 37.4 °F 32.1 °F 33.8 °F 87% 30.17 in 10.0 mi ESE 6.9 mph - N/A   Clear
2:15 AM 37.4 °F 34.9 °F 32.0 °F 81% 30.17 in 10.0 mi ESE 3.5 mph - N/A   Clear
2:35 AM 37.4 °F 32.8 °F 32.0 °F 81% 30.17 in 10.0 mi ESE 5.8 mph - N/A   Clear
2:55 AM 37.4 °F 32.8 °F 32.0 °F 81% 30.17 in 10.0 mi SE 5.8 mph - N/A   Clear
3:15 AM 37.4 °F 32.8 °F 32.0 °F 81% 30.16 in 10.0 mi SE 5.8 mph - N/A   Clear
3:35 AM 37.4 °F 33.8 °F 32.0 °F 81% 30.16 in 10.0 mi SE 4.6 mph - N/A   Clear
3:55 AM 35.6 °F 31.7 °F 32.0 °F 87% 30.16 in 10.0 mi SE 4.6 mph - N/A   Clear
4:15 AM 35.6 °F 30.7 °F 32.0 °F 87% 30.16 in 10.0 mi SE 5.8 mph - N/A   Clear
4:35 AM 35.6 °F 29.9 °F 32.0 °F 87% 30.16 in 10.0 mi SE 6.9 mph - N/A   Clear
5:15 AM 37.4 °F 32.1 °F 32.0 °F 81% 30.16 in 10.0 mi SE 6.9 mph - N/A   Clear
5:35 AM 35.6 °F 29.9 °F 32.0 °F 87% 30.16 in 10.0 mi SE 6.9 mph - N/A   Clear
6:45 AM 37.4 °F 31.4 °F 32.0 °F 81% 30.16 in 10.0 mi SE 8.1 mph - N/A   Clear
7:45 AM 39.2 °F 33.0 °F 32.0 °F 75% 30.17 in 10.0 mi SE 9.2 mph - N/A   Clear
8:55 AM 44.6 °F 39.2 °F 32.0 °F 61% 30.18 in 10.0 mi SE 10.4 mph - N/A   Clear
9:45 AM 50.0 °F - 33.8 °F 54% 30.17 in 10.0 mi SE 8.1 mph - N/A   Clear
10:58 AM 55.4 °F - 33.8 °F 44% 30.16 in 10.0 mi SSE 8.1 mph - N/A   Clear
11:55 AM 59.0 °F - 35.6 °F 42% 30.12 in 10.0 mi SSE 10.4 mph - N/A   Clear
12:45 PM 62.6 °F - 35.6 °F 37% 30.10 in 10.0 mi SE 11.5 mph - N/A   Clear
1:45 PM 64.4 °F - 35.6 °F 34% 30.07 in 10.0 mi SE 12.7 mph - N/A   Clear
2:45 PM 64.4 °F - 33.8 °F 32% 30.05 in 10.0 mi SE 12.7 mph - N/A   Clear
3:58 PM 64.4 °F - 33.8 °F 32% 30.05 in 10.0 mi SE 11.5 mph - N/A   Clear
4:45 PM 62.6 °F - 35.6 °F 37% 30.04 in 10.0 mi SE 12.7 mph 18.4 mph N/A   Clear
5:45 PM 57.2 °F - 35.6 °F 44% 30.04 in 10.0 mi SE 10.4 mph - N/A   Clear
6:45 PM 55.4 °F - 37.4 °F 51% 30.04 in 10.0 mi SE 12.7 mph - N/A   Clear
7:45 PM 53.6 °F - 37.4 °F 54% 30.04 in 10.0 mi SE 11.5 mph - N/A   Clear
8:15 PM 53.6 °F - 37.4 °F 54% 30.03 in 10.0 mi SE 11.5 mph - N/A   Clear
8:35 PM 51.8 °F - 37.4 °F 58% 30.03 in 10.0 mi SSE 10.4 mph - N/A   Clear
8:45 PM 51.8 °F - 37.4 °F 58% 30.03 in 10.0 mi SSE 11.5 mph - N/A   Clear
8:55 PM 51.8 °F - 37.4 °F 58% 30.03 in 10.0 mi SSE 9.2 mph - N/A   Clear
9:15 PM 51.8 °F - 37.4 °F 58% 30.04 in 10.0 mi SSE 8.1 mph - N/A   Clear
9:35 PM 50.0 °F - 37.4 °F 62% 30.05 in 10.0 mi SSE 4.6 mph - N/A   Clear
9:55 PM 50.0 °F - 37.4 °F 62% 30.05 in 10.0 mi SE 6.9 mph - N/A   Clear
10:15 PM 50.0 °F - 37.4 °F 62% 30.05 in 10.0 mi SE 8.1 mph - N/A   Clear
10:35 PM 50.0 °F - 37.4 °F 62% 30.04 in 10.0 mi ESE 6.9 mph - N/A   Clear
10:55 PM 48.2 °F - 37.4 °F 66% 30.05 in 10.0 mi ESE 5.8 mph - N/A   Clear
11:15 PM 48.2 °F - 37.4 °F 66% 30.04 in 10.0 mi ESE 6.9 mph - N/A   Clear
11:35 PM 48.2 °F - 37.4 °F 66% 30.05 in 10.0 mi SE 6.9 mph - N/A   Clear
11:55 PM 48.2 °F - 37.4 °F 66% 30.04 in 10.0 mi SE 8.1 mph - N/A   Partly Cloudy